Temperature
5 5 5 6 6 6 6 6 7 7 7 8 8 8 9 9 9 9 10 10 10 10 10 10 10 10 10 10 10 10 10 10 10 10 9 9 9 10 10 10 10 10 10
4 4 5 5 5 5 6 6 6 6 7 7 7 8 8 8 9 9 9 9 9 10 10 10 10 10 10 10 10 10 10 10 10 9 9 9 9 9 9 9 9 9 9
3 3 4 4 5 5 5 5 6 6 6 6 7 7 7 7 8 8 9 9 9 9 9 10 10 10 10 10 10 10 9 9 9 9 9 9 9 9 9 9 9 9 9
2 3 3 4 4 4 5 5 5 5 6 6 6 6 7 7 7 8 8 8 8 9 9 9 9 9 9 9 9 9 9 9 9 9 9 9 9 9 9 8 9 9 9
2 2 2 3 3 4 4 4 5 5 5 5 6 6 6 7 7 7 7 8 8 8 8 8 9 9 9 9 9 9 9 9 9 9 9 9 9 9 9 8 8 8 8
1 2 2 2 3 3 4 4 5 5 5 5 5 6 6 6 6 7 7 7 7 8 8 8 8 8 8 8 9 8 8 8 8 8 8 8 9 9 9 8 8 8 8
1 1 1 2 2 3 3 3 4 4 4 5 5 5 6 6 6 6 7 7 7 7 7 7 7 8 8 8 8 8 8 8 8 8 8 8 8 8 8 8 8 8 8
0 0 1 1 2 2 2 3 3 4 4 4 5 5 5 5 6 6 6 6 6 7 7 7 7 7 7 8 8 8 8 8 8 8 8 8 8 8 8 8 8 7 7
-0 0 0 1 1 2 2 2 3 3 4 4 4 5 5 5 5 6 6 6 6 6 6 6 7 7 7 7 7 7 7 7 7 7 7 7 7 7 7 7 7 7 7
-1 -1 0 0 1 1 2 2 2 3 3 3 4 4 4 5 5 5 5 6 6 6 6 6 6 6 7 7 7 7 7 7 7 7 7 7 7 7 7 7 7 7 7
-2 -1 -0 0 1 1 1 2 2 2 2 3 3 4 4 4 5 5 5 5 5 5 5 6 6 6 6 7 7 7 7 7 7 7 7 7 7 7 7 7 6 6 6
-2 -2 -1 -0 0 1 1 1 1 2 2 2 2 3 3 4 4 4 4 5 5 5 5 5 5 6 6 6 6 6 6 6 6 6 6 6 6 7 6 6 6 6 6
-2 -2 -2 -1 -0 0 1 1 1 1 2 2 2 2 3 3 3 4 4 4 4 5 5 5 5 5 5 5 5 6 6 6 6 6 6 6 6 6 6 6 6 6 6
-3 -2 -2 -2 -1 -0 0 0 1 1 1 2 2 2 2 3 3 3 4 4 4 4 4 4 4 5 5 5 5 5 5 5 6 6 6 6 6 6 6 6 6 5 5
-3 -3 -3 -2 -2 -1 -0 0 0 1 1 1 1 2 2 2 2 3 3 3 4 4 4 4 4 4 4 4 5 5 5 5 5 5 5 5 5 5 5 5 5 5 5
-4 -3 -3 -3 -2 -2 -1 -0 0 0 0 1 1 1 1 2 2 2 2 3 3 3 3 3 3 3 4 4 4 4 4 4 4 4 4 5 5 5 5 5 4 4 4
-4 -4 -4 -3 -3 -2 -2 -1 -0 -0 -0 0 0 1 1 1 1 2 2 2 2 2 3 3 3 3 3 3 4 4 4 4 4 4 4 4 4 4 4 4 4 4 4
-5 -4 -4 -4 -3 -3 -2 -2 -1 -1 -1 -1 0 0 0 1 1 1 1 1 1 2 2 2 2 2 3 3 3 3 3 3 3 3 3 3 3 3 3 3 3 3 3
-5 -5 -4 -4 -3 -3 -3 -2 -2 -1 -1 -1 -0 -0 0 0 0 1 0 1 1 1 1 1 1 2 2 2 2 2 2 2 3 3 3 3 3 3 3 2 2 3 3
-5 -5 -5 -4 -4 -3 -3 -3 -2 -2 -2 -1 -1 -1 -0 -0 0 0 0 0 0 0 0 1 1 1 1 1 2 2 1 2 2 2 2 2 2 2 2 2 2 2 2
-5 -5 -5 -4 -4 -4 -4 -3 -3 -2 -2 -2 -1 -1 -1 -1 -0 -0 -0 -0 -0 -0 -0 -0 -0 0 0 1 1 1 1 1 1 1 1 1 1 1 1 1 1 1 1
-5 -5 -5 -5 -4 -4 -4 -4 -3 -3 -2 -2 -2 -1 -1 -1 -1 -1 -1 -1 -1 -1 -1 -1 -1 -1 -0 -0 0 0 0 0 0 1 1 1 1 1 1 1 1 1 1
-6 -6 -6 -5 -5 -5 -4 -4 -4 -3 -3 -2 -2 -2 -1 -1 -1 -1 -1 -1 -1 -1 -1 -1 -1 -1 -1 -1 -1 -1 -0 -0 -0 -0 -0 0 0 0 0 0 0 0 0
-6 -6 -6 -6 -5 -5 -4 -4 -4 -4 -3 -3 -2 -2 -2 -2 -2 -2 -2 -2 -2 -2 -2 -2 -2 -1 -1 -1 -1 -1 -1 -1 -1 -1 -1 -1 -1 -1 -1 -0 -0 -0 -0
-7 -6 -6 -6 -6 -5 -5 -5 -4 -4 -3 -3 -3 -3 -2 -2 -2 -2 -2 -2 -2 -2 -2 -2 -2 -2 -2 -2 -2 -1 -1 -1 -1 -1 -1 -1 -1 -1 -1 -1 -1 -1 -1
-7 -7 -6 -6 -6 -6 -5 -5 -5 -4 -4 -4 -3 -3 -3 -3 -3 -2 -2 -2 -2 -2 -2 -2 -2 -2 -2 -2 -2 -2 -2 -2 -2 -2 -2 -2 -2 -2 -2 -2 -2 -2 -2
Wind_Speed
5 4 3 2 2 2 2 3 3 2 2 2 3 3 3 2 1 2 4 5 6 7 7 6 6 6 6 6 6 5 5 4 4 4 3 2 2 2 2 3 3 3 4
4 4 3 2 2 3 3 3 4 3 3 3 3 3 3 2 2 1 2 4 5 6 6 7 5 6 6 7 7 6 4 3 3 3 4 2 0 1 1 1 2 1 2
4 3 2 2 2 2 3 3 4 3 3 2 1 1 2 1 1 1 1 2 4 5 5 6 5 5 6 7 7 7 5 5 3 2 4 4 3 1 0 1 1 1 1
4 3 2 3 3 3 3 3 3 3 3 3 4 3 4 3 2 2 2 2 4 4 4 4 6 5 5 7 7 6 5 6 6 2 1 2 4 3 1 1 1 1 2
3 3 3 3 3 3 2 3 2 3 3 4 4 4 4 3 2 2 3 2 3 4 4 4 4 5 5 6 7 6 6 5 5 4 3 2 2 2 3 2 2 1 2
5 4 4 3 3 3 2 2 2 3 3 4 4 5 5 4 4 3 3 3 2 2 3 4 3 4 4 5 6 7 8 6 5 4 4 4 3 3 3 3 3 3 2
5 5 5 4 4 3 3 3 3 4 3 3 4 5 5 6 6 5 5 4 3 3 3 3 3 3 3 5 6 6 6 6 7 7 5 4 3 3 3 3 3 2 1
5 6 6 5 4 3 4 3 3 4 4 4 4 4 5 4 4 5 5 5 4 4 4 4 4 4 4 4 6 5 5 5 7 7 6 4 3 3 3 3 3 2 1
7 7 7 6 5 4 4 4 4 3 4 4 4 4 5 5 4 4 4 4 3 3 4 4 4 4 4 4 5 5 5 4 5 6 6 5 4 3 3 3 4 4 3
7 7 7 7 6 4 4 3 3 3 3 3 3 3 4 5 4 4 5 4 4 4 4 4 4 4 4 4 4 4 4 5 5 5 6 5 4 4 3 3 3 3 4
7 7 7 6 5 5 4 4 3 3 3 3 3 2 3 4 4 4 5 5 4 5 5 5 5 5 4 4 4 4 4 6 6 5 6 7 5 5 4 4 3 3 3
6 6 6 6 5 5 5 4 4 3 3 3 2 3 3 3 4 4 4 4 4 4 5 5 5 5 5 4 5 5 5 7 7 7 7 7 6 6 5 4 4 4 3
7 7 7 6 6 6 6 5 5 4 3 3 2 3 2 3 4 5 4 4 4 4 4 4 5 5 5 5 5 5 5 6 7 7 8 7 7 7 5 5 5 4 3
6 6 6 6 7 6 6 6 6 5 4 3 3 3 3 3 4 4 4 4 5 5 5 5 5 4 4 5 5 5 5 5 5 7 7 7 8 8 7 6 6 5 4
7 7 6 6 7 7 7 7 6 5 4 3 3 4 3 3 3 3 4 4 4 5 5 4 4 4 4 5 5 5 5 5 5 5 6 6 7 7 7 6 6 6 5
8 7 7 7 7 7 7 7 7 6 5 4 4 4 3 2 2 3 3 3 3 3 3 4 4 4 4 5 6 6 6 5 5 5 4 4 6 6 6 7 7 7 7
8 8 7 7 7 7 7 7 7 6 5 4 4 3 2 2 2 2 2 2 2 2 3 3 4 4 5 6 6 7 6 5 5 5 4 3 3 4 4 5 6 6 7
8 8 7 7 7 7 7 7 6 5 5 5 4 4 2 2 1 1 1 1 2 2 2 2 2 2 3 5 6 6 5 5 5 5 5 5 4 4 4 4 3 4 4
7 7 7 7 7 7 6 6 6 5 5 4 4 4 3 2 1 2 2 1 2 1 1 1 2 2 3 4 5 5 5 4 4 4 5 5 5 5 5 4 4 3 2
6 7 7 6 6 7 6 5 5 5 5 5 5 4 3 2 2 2 2 1 1 2 2 1 1 2 2 3 5 6 4 4 4 3 4 5 5 6 6 5 5 5 4
7 7 6 6 6 6 6 5 5 5 6 6 5 4 2 2 2 1 1 1 1 1 1 1 1 2 2 3 5 5 4 5 4 4 3 3 5 5 6 5 5 6 4
8 7 6 7 6 6 5 5 5 6 6 6 5 4 2 1 1 1 1 1 2 1 1 1 1 1 2 2 4 6 5 4 4 4 3 3 5 5 5 4 4 5 3
7 7 6 7 7 6 5 5 6 6 6 5 5 4 3 2 1 1 2 1 1 1 1 1 2 1 1 2 3 5 5 4 3 3 4 4 4 3 3 4 5 4 3
6 6 6 7 7 7 6 6 7 6 5 5 5 4 3 2 2 1 1 1 2 2 2 2 2 2 1 1 2 3 3 4 3 2 3 3 3 2 3 3 3 3 3
6 5 5 6 7 7 7 7 6 6 5 5 4 4 3 2 2 1 1 1 1 2 3 3 3 3 3 3 3 3 3 4 4 3 2 1 2 2 2 2 2 3 3
5 5 6 6 7 7 7 7 6 5 4 4 4 3 3 2 2 1 2 3 1 2 2 2 2 2 3 2 2 2 2 3 4 3 2 3 3 3 4 3 3 3 3
Wind_Direction
273 279 277 257 239 241 233 214 213 227 215 192 191 187 191 191 184 172 177 169 170 166 164 164 162 161 165 166 159 148 142 135 130 116 104 69 73 93 88 89 91 90 101
307 305 305 285 252 244 243 225 214 217 221 216 220 205 190 188 190 166 163 169 162 168 168 165 172 169 166 161 162 154 157 153 151 143 136 126 61 58 99 97 105 94 107
306 304 305 290 276 265 250 240 232 231 230 212 196 184 143 149 176 190 187 169 163 167 169 172 169 171 172 174 173 170 163 168 166 152 152 154 190 187 256 165 153 167 134
316 306 306 304 292 276 263 246 235 235 234 201 188 183 185 191 211 206 197 176 163 168 168 169 178 173 177 178 179 177 172 167 172 173 139 140 145 151 174 227 207 200 198
309 298 288 282 291 289 275 256 240 243 229 205 196 196 197 191 185 186 182 191 170 162 168 176 180 178 180 185 178 175 173 176 176 171 162 126 103 120 151 192 209 218 226
318 309 299 305 309 317 311 281 254 267 243 206 197 203 199 188 177 183 191 201 188 176 174 180 181 185 185 189 185 182 180 184 181 172 170 163 158 165 161 180 195 211 234
336 328 321 312 309 317 308 283 265 268 254 223 210 211 203 194 190 193 195 197 197 203 200 192 188 189 192 189 185 180 185 188 187 184 187 185 175 158 155 159 176 196 235
335 333 329 317 304 301 297 283 264 265 251 232 225 221 205 201 203 196 197 203 205 205 205 199 190 189 187 188 187 185 187 191 190 186 185 186 181 169 166 161 160 165 220
330 331 333 329 319 304 290 274 256 257 252 243 230 228 208 198 203 200 200 207 208 203 200 199 194 190 187 188 185 195 193 193 193 188 188 190 188 180 177 167 168 169 196
332 335 331 325 318 305 301 308 279 258 258 252 236 235 213 202 200 195 201 205 213 202 200 201 198 196 193 191 188 194 194 197 201 194 189 194 192 184 179 181 182 183 189
323 322 320 320 325 332 329 325 312 285 278 266 257 257 222 207 196 201 207 207 213 203 204 204 198 196 194 192 197 199 198 203 196 192 195 200 191 188 188 185 185 187 186
320 321 323 333 343 342 333 326 319 301 283 279 277 260 229 206 204 209 215 210 209 207 206 202 196 198 197 193 199 201 210 203 197 198 197 202 195 194 191 192 198 197 193
333 339 339 341 344 342 336 329 319 319 315 305 297 278 251 214 213 215 215 210 204 205 209 199 196 200 201 199 197 202 216 203 201 202 203 202 195 199 200 198 201 201 196
332 336 335 336 339 337 336 334 330 327 322 319 311 286 272 242 221 213 208 206 202 199 206 205 198 199 199 203 199 202 209 199 201 206 207 205 202 203 201 202 203 198 194
330 331 329 329 331 334 333 332 328 326 319 315 294 280 268 257 227 212 207 206 208 210 207 197 193 194 198 202 197 201 200 196 199 203 208 208 204 205 204 204 201 196 199
320 321 321 324 324 324 322 323 320 319 320 310 292 289 280 263 234 215 205 201 205 197 190 197 192 192 203 207 203 198 196 195 195 202 208 209 204 206 206 209 206 201 202
313 314 314 313 314 315 315 313 310 314 319 314 310 304 294 276 256 230 191 183 190 187 187 188 183 194 208 205 205 202 193 191 194 198 201 209 214 205 206 213 214 216 218
310 311 313 312 313 313 313 311 315 316 313 316 318 311 304 296 274 225 201 190 176 187 190 185 188 195 217 209 206 200 192 190 195 199 199 199 205 209 200 196 207 220 225
302 304 306 305 309 311 313 318 319 316 314 310 309 309 303 291 258 232 225 217 189 196 206 209 193 193 220 217 207 195 189 193 196 201 201 201 204 207 200 190 195 217 240
308 308 313 316 316 318 320 315 313 316 314 309 303 298 285 270 254 242 231 224 206 200 193 201 211 208 222 229 210 195 187 188 192 196 203 207 208 206 201 198 195 212 232
319 320 320 317 315 321 327 320 319 313 309 310 307 304 288 262 248 241 223 223 215 187 184 203 223 221 232 232 211 202 195 189 189 196 201 206 204 208 210 210 206 215 213
325 327 326 321 322 327 326 322 321 317 320 319 314 312 306 288 251 205 216 204 181 184 210 207 230 233 240 234 218 210 209 197 189 198 197 201 199 207 210 213 204 199 191
320 323 321 321 327 330 329 321 319 324 325 325 322 322 319 306 281 215 197 190 176 181 215 214 228 256 254 234 219 210 208 201 194 190 190 193 192 191 195 197 198 194 186
316 320 324 325 327 332 331 320 319 325 325 322 323 326 330 327 319 288 219 192 184 195 215 226 234 245 247 241 223 200 197 191 184 169 169 175 177 191 201 198 198 197 195
314 318 317 316 318 326 328 326 328 332 328 321 324 328 328 327 330 326 269 218 217 226 226 226 221 225 239 247 242 217 201 195 186 163 149 163 182 198 201 193 194 193 190
310 315 314 314 316 323 325 328 332 332 328 322 325 325 327 324 321 331 355 1 348 325 290 283 261 257 264 269 254 248 227 204 180 164 179 198 202 204 203 201 205 206 199
Height
1487 1487 1487 1488 1489 1490 1491 1492 1493 1495 1497 1499 1501 1503 1505 1507 1510 1512 1514 1517 1520 1523 1525 1528 1530 1533 1535 1538 1540 1543 1545 1548 1551 1553 1555 1557 1559 1560 1561 1563 1564 1566 1567
1483 1483 1484 1484 1485 1486 1487 1489 1490 1492 1494 1496 1498 1500 1502 1504 1506 1509 1511 1514 1516 1519 1522 1525 1527 1529 1532 1535 1537 1540 1542 1545 1548 1550 1552 1555 1558 1558 1559 1561 1562 1563 1565
1480 1480 1480 1481 1482 1483 1484 1485 1487 1488 1490 1493 1495 1497 1499 1501 1503 1505 1507 1510 1512 1515 1518 1521 1524 1526 1529 1531 1534 1537 1539 1541 1545 1547 1550 1551 1553 1555 1557 1558 1560 1561 1562
1479 1478 1478 1478 1478 1480 1481 1483 1484 1486 1487 1490 1492 1493 1495 1496 1499 1501 1504 1507 1509 1512 1514 1517 1520 1523 1525 1527 1530 1533 1536 1538 1541 1544 1546 1549 1550 1552 1554 1557 1558 1559 1560
1478 1477 1476 1476 1476 1477 1478 1480 1481 1483 1484 1487 1488 1490 1492 1494 1496 1499 1501 1503 1506 1508 1511 1514 1516 1519 1522 1524 1527 1529 1533 1535 1538 1540 1542 1545 1547 1549 1551 1552 1555 1556 1557
1476 1475 1474 1473 1473 1474 1475 1476 1477 1479 1480 1482 1484 1487 1488 1490 1493 1495 1497 1500 1501 1504 1507 1510 1513 1516 1518 1520 1523 1526 1529 1532 1535 1538 1540 1541 1543 1545 1547 1549 1550 1552 1554
1474 1472 1471 1470 1470 1470 1471 1473 1474 1475 1477 1478 1480 1483 1485 1487 1489 1491 1494 1496 1498 1500 1503 1507 1509 1512 1514 1517 1519 1522 1525 1528 1531 1534 1536 1539 1541 1543 1545 1547 1548 1549 1550
1473 1471 1469 1468 1468 1468 1468 1469 1470 1471 1473 1475 1477 1479 1481 1483 1485 1488 1490 1492 1494 1497 1500 1503 1505 1508 1511 1513 1516 1518 1521 1524 1527 1530 1533 1535 1537 1540 1541 1544 1545 1546 1547
1471 1469 1467 1466 1466 1466 1466 1467 1468 1469 1470 1471 1473 1475 1477 1479 1481 1484 1486 1489 1490 1493 1496 1499 1502 1504 1507 1509 1512 1514 1517 1520 1523 1526 1529 1531 1534 1536 1538 1540 1542 1544 1543
1469 1467 1466 1466 1465 1464 1464 1465 1465 1465 1466 1468 1470 1471 1472 1474 1477 1480 1482 1484 1487 1489 1492 1494 1497 1499 1502 1505 1507 1511 1513 1515 1519 1522 1525 1527 1530 1532 1534 1536 1538 1540 1541
1469 1467 1465 1464 1463 1462 1462 1462 1463 1463 1463 1464 1466 1467 1469 1471 1473 1475 1478 1480 1482 1484 1487 1489 1492 1494 1497 1500 1503 1505 1508 1511 1514 1517 1520 1523 1525 1527 1530 1532 1534 1535 1537
1469 1467 1464 1463 1462 1461 1460 1461 1461 1461 1461 1462 1463 1464 1465 1467 1469 1471 1473 1476 1478 1480 1483 1485 1487 1490 1493 1495 1498 1500 1503 1506 1508 1512 1515 1518 1520 1523 1525 1527 1529 1531 1532
1467 1465 1463 1461 1460 1459 1459 1459 1459 1458 1459 1459 1460 1460 1461 1463 1465 1467 1469 1471 1474 1476 1478 1480 1483 1485 1488 1490 1493 1496 1498 1501 1503 1507 1509 1512 1515 1517 1520 1522 1524 1526 1527
1467 1465 1463 1460 1458 1458 1458 1458 1457 1457 1457 1457 1457 1458 1458 1460 1461 1463 1465 1467 1469 1471 1473 1476 1478 1480 1483 1485 1488 1491 1493 1496 1498 1502 1504 1507 1509 1512 1514 1517 1519 1521 1522
1466 1465 1463 1460 1458 1457 1456 1456 1456 1455 1455 1455 1455 1455 1456 1456 1457 1459 1460 1462 1465 1466 1469 1471 1473 1475 1478 1480 1483 1486 1488 1491 1493 1496 1498 1501 1503 1506 1508 1511 1513 1515 1516
1466 1464 1462 1460 1457 1456 1454 1454 1453 1453 1452 1452 1452 1452 1452 1452 1453 1454 1456 1458 1460 1461 1464 1466 1468 1470 1472 1475 1478 1481 1483 1485 1488 1490 1492 1495 1498 1500 1502 1505 1507 1510 1511
1465 1462 1460 1458 1456 1455 1453 1452 1451 1450 1449 1449 1448 1449 1449 1449 1449 1450 1451 1453 1455 1457 1458 1461 1462 1464 1467 1470 1473 1475 1478 1480 1482 1485 1487 1489 1492 1494 1496 1499 1501 1503 1505
1463 1461 1459 1457 1455 1453 1452 1450 1449 1448 1447 1446 1446 1446 1446 1446 1447 1448 1448 1449 1451 1452 1454 1455 1457 1459 1462 1465 1467 1470 1473 1475 1477 1480 1482 1484 1486 1488 1490 1493 1495 1497 1499
1462 1460 1458 1455 1453 1451 1449 1448 1447 1446 1445 1444 1444 1444 1444 1444 1444 1445 1445 1447 1448 1449 1451 1452 1453 1455 1457 1460 1462 1464 1467 1469 1472 1475 1477 1479 1481 1483 1486 1487 1489 1491 1493
1460 1458 1455 1453 1451 1449 1448 1446 1445 1444 1442 1442 1442 1442 1442 1442 1442 1443 1444 1445 1446 1447 1448 1449 1450 1452 1453 1455 1457 1460 1462 1465 1467 1470 1472 1474 1476 1478 1480 1482 1484 1485 1487
1459 1456 1454 1452 1450 1448 1446 1445 1443 1442 1441 1440 1440 1440 1440 1440 1440 1440 1442 1443 1443 1444 1445 1446 1448 1449 1450 1451 1453 1456 1458 1460 1462 1464 1466 1468 1471 1473 1475 1477 1479 1480 1482
1457 1454 1452 1450 1449 1447 1445 1443 1442 1441 1440 1439 1438 1438 1438 1438 1438 1438 1439 1440 1440 1441 1442 1443 1444 1445 1447 1448 1450 1452 1454 1456 1458 1459 1462 1464 1466 1468 1470 1472 1474 1475 1477
1456 1453 1451 1449 1447 1446 1444 1442 1441 1440 1438 1437 1437 1436 1436 1436 1436 1436 1437 1438 1438 1439 1440 1441 1441 1442 1443 1445 1446 1448 1450 1452 1454 1455 1457 1459 1461 1463 1465 1467 1468 1470 1471
1454 1452 1450 1447 1445 1444 1443 1441 1440 1439 1437 1436 1435 1435 1434 1434 1434 1434 1435 1436 1436 1437 1437 1438 1438 1439 1440 1441 1442 1444 1446 1448 1449 1451 1453 1455 1457 1458 1460 1461 1463 1464 1466
1453 1451 1448 1446 1444 1443 1441 1440 1439 1438 1436 1435 1434 1433 1433 1432 1432 1432 1433 1433 1434 1435 1435 1435 1436 1436 1437 1438 1439 1440 1441 1443 1445 1446 1448 1450 1452 1453 1455 1456 1457 1459 1460
1451 1449 1446 1444 1443 1441 1440 1439 1437 1436 1435 1434 1433 1432 1432 1432 1432 1431 1432 1432 1433 1433 1433 1434 1434 1434 1435 1436 1436 1437 1438 1440 1441 1443 1444 1445 1447 1448 1450 1451 1452 1454 1455